Weather History for KAHQ - August, 2012

Change the Weather History Date:

Thursday, August 16, 2012

  Actual Average Record
Temperature  
Mean Temperature 65 °F -  
Max Temperature 75 °F 87 °F 104 °F (1983)
Min Temperature 52 °F 63 °F 48 °F (1992)
Growing Degree Days 15 (Base 50)    
Moisture  
Dew Point 50 °F    
Average Humidity 57    
Maximum Humidity 78    
Minimum Humidity 31    
Precipitation  
Precipitation 0.00 in - - ()
Sea Level Pressure  
Sea Level Pressure 30.04 in    
Wind  
Wind Speed 13 mph (NNW)    
Max Wind Speed 18 mph    
Max Gust Speed 28 mph    
Visibility 10 miles    
Events Rain    
Averages and records for this station are not official NWS values.
T = Trace of Precipitation, MM = Missing Value Source: NWS Daily Summary

Daily Weather History Graph

Daily Weather History Graph

Search for Another Location

Airport or City:

Trip Planner

Search our weather history database for the weather conditions in past years. The results will help you decide how hot, cold, wet, or windy it might be!

Date:

Astronomy

Aug. 16, 2012 Rise Set
Actual Time 6:37 AM CDT 8:23 PM CDT
Civil Twilight 6:07 AM CDT 8:52 PM CDT
Nautical Twilight 5:31 AM CDT 9:28 PM CDT
Astronomical Twilight 4:53 AM CDT 10:06 PM CDT
Moon 5:37 AM CDT (8/16) 7:32 PM CDT (8/16)
Length of Visible Light 14h 44m
Length of Day
13h 45m
Waning Crescent, 1% of the Moon is Illuminated
Aug 16
Waning Crescent
Aug 17
New
Aug 24
First Quarter
Aug 31
Full
Sep 8
Last Quarter

Hourly Weather History & Observations

Time (CDT) Temp. Dew Point Humidity Pressure Visibility Wind Dir Wind Speed Gust Speed Precip Events Conditions
12:15 AM 73.0 °F 60.6 °F 65% 29.85 in 10.0 mi NNW 18.4 mph 25.3 mph N/A   Scattered Clouds
12:35 AM 71.8 °F 59.5 °F 65% 29.86 in 10.0 mi North 15.0 mph 25.3 mph N/A   Scattered Clouds
12:55 AM 70.9 °F 59.2 °F 66% 29.87 in 10.0 mi NNW 13.8 mph 25.3 mph N/A   Mostly Cloudy
1:15 AM 69.4 °F 57.7 °F 66% 29.87 in 10.0 mi North 18.4 mph 27.6 mph N/A   Scattered Clouds
1:35 AM 68.7 °F 56.5 °F 65% 29.88 in 10.0 mi NNW 15.0 mph 25.3 mph N/A   Clear
1:55 AM 68.2 °F 56.5 °F 66% 29.90 in 10.0 mi NNW 13.8 mph 19.6 mph N/A   Mostly Cloudy
2:15 AM 68.4 °F 56.3 °F 65% 29.91 in 10.0 mi NNW 15.0 mph 23.0 mph N/A   Overcast
2:35 AM 68.4 °F 56.3 °F 65% 29.92 in 10.0 mi NNW 15.0 mph 25.3 mph N/A   Overcast
2:55 AM 68.2 °F 56.5 °F 66% 29.92 in 10.0 mi NNW 15.0 mph 24.2 mph N/A   Overcast
3:15 AM 68.0 °F 56.7 °F 67% 29.92 in 10.0 mi North 12.7 mph 20.7 mph N/A   Overcast
3:35 AM 67.6 °F 56.5 °F 67% 29.93 in 10.0 mi NNW 13.8 mph - N/A   Overcast
3:55 AM 67.3 °F 56.3 °F 68% 29.94 in 10.0 mi NNW 18.4 mph 26.5 mph N/A   Overcast
4:15 AM 66.9 °F 56.1 °F 68% 29.94 in 10.0 mi North 15.0 mph 25.3 mph N/A   Overcast
4:35 AM 66.4 °F 56.3 °F 70% 29.96 in 10.0 mi NNW 15.0 mph 26.5 mph N/A   Overcast
4:55 AM 65.7 °F 56.3 °F 72% 29.97 in 10.0 mi NNW 12.7 mph 23.0 mph N/A   Overcast
5:15 AM 65.5 °F 55.6 °F 70% 29.99 in 10.0 mi NNW 15.0 mph 20.7 mph N/A   Overcast
5:35 AM 64.9 °F 54.9 °F 70% 29.99 in 10.0 mi North 13.8 mph 20.7 mph N/A   Mostly Cloudy
5:55 AM 64.9 °F 54.5 °F 69% 30.01 in 10.0 mi NNW 9.2 mph - N/A   Overcast
6:15 AM 64.4 °F 54.5 °F 70% 30.02 in 10.0 mi NNW 11.5 mph 20.7 mph N/A   Overcast
6:35 AM 63.0 °F 54.5 °F 74% 30.03 in 10.0 mi NNW 10.4 mph 17.3 mph N/A   Scattered Clouds
6:55 AM 61.9 °F 54.0 °F 75% 30.05 in 10.0 mi NNW 10.4 mph - N/A   Clear
7:35 AM 62.1 °F 54.1 °F 75% 30.07 in 10.0 mi NNW 10.4 mph - N/A   Clear
7:55 AM 61.9 °F 54.1 °F 76% 30.07 in 10.0 mi NNW 8.1 mph 16.1 mph N/A   Clear
8:15 AM 62.6 °F 54.0 °F 73% 30.08 in 10.0 mi NNW 12.7 mph 17.3 mph N/A   Clear
8:35 AM 63.0 °F 53.2 °F 71% 30.07 in 10.0 mi North 10.4 mph 21.9 mph N/A   Clear
8:55 AM 63.9 °F 52.9 °F 67% 30.06 in 10.0 mi North 12.7 mph 20.7 mph N/A   Clear
9:15 AM 63.3 °F 52.5 °F 68% 30.11 in 10.0 mi NNW 13.8 mph 24.2 mph N/A   Clear
9:35 AM 62.6 °F 52.3 °F 69% 30.08 in 10.0 mi North 10.4 mph 21.9 mph N/A   Clear
9:55 AM 61.2 °F 52.2 °F 72% 30.05 in 10.0 mi North 13.8 mph 19.6 mph N/A Rain Light Rain
10:15 AM 60.3 °F 53.2 °F 78% 30.11 in 10.0 mi Calm Calm - N/A Rain Light Rain
10:35 AM 61.5 °F 53.4 °F 75% 30.11 in 10.0 mi NW 6.9 mph - N/A   Scattered Clouds
10:55 AM 64.6 °F 53.4 °F 67% 30.11 in 10.0 mi NW 10.4 mph 16.1 mph N/A   Clear
11:35 AM 69.1 °F 47.8 °F 47% 30.12 in 10.0 mi NNW 13.8 mph 20.7 mph N/A   Clear
11:55 AM 69.4 °F 46.9 °F 45% 30.12 in 10.0 mi NNW 12.7 mph 19.6 mph N/A   Clear
12:15 PM 70.2 °F 47.7 °F 45% 30.12 in 10.0 mi NNW 15.0 mph 21.9 mph N/A   Clear
12:35 PM 70.3 °F 48.0 °F 45% 30.12 in 10.0 mi North 15.0 mph 20.7 mph N/A   Clear
12:55 PM 71.4 °F 47.5 °F 42% 30.11 in 10.0 mi NNW 15.0 mph 20.7 mph N/A   Clear
1:15 PM 71.8 °F 46.4 °F 40% 30.11 in 10.0 mi NNW 13.8 mph 20.7 mph N/A   Clear
1:35 PM 72.1 °F 46.9 °F 41% 30.11 in 10.0 mi NNW 13.8 mph 24.2 mph N/A   Clear
1:55 PM 72.3 °F 45.7 °F 39% 30.11 in 10.0 mi NW 17.3 mph 23.0 mph N/A   Clear
2:15 PM 73.9 °F 45.9 °F 37% 30.10 in 10.0 mi NNW 18.4 mph 21.9 mph N/A   Clear
2:35 PM 73.2 °F 44.8 °F 36% 30.11 in 10.0 mi NW 13.8 mph 20.7 mph N/A   Clear
2:55 PM 74.3 °F 44.2 °F 34% 30.10 in 10.0 mi NNW 11.5 mph 19.6 mph N/A   Clear
3:15 PM 73.9 °F 43.2 °F 33% 30.10 in 10.0 mi NNW 12.7 mph 20.7 mph N/A   Clear
3:35 PM 75.0 °F 43.2 °F 32% 30.09 in 10.0 mi North 9.2 mph - N/A   Clear
3:55 PM 75.2 °F 43.0 °F 32% 30.09 in 10.0 mi NNW 11.5 mph 18.4 mph N/A   Clear
4:15 PM 74.8 °F 43.7 °F 33% 30.09 in 10.0 mi NW 10.4 mph - N/A   Clear
4:35 PM 75.2 °F 43.5 °F 32% 30.08 in 10.0 mi NNW 6.9 mph 19.6 mph N/A   Clear
4:55 PM 75.4 °F 42.4 °F 31% 30.08 in 10.0 mi NW 10.4 mph 17.3 mph N/A   Clear
5:15 PM 75.2 °F 43.3 °F 32% 30.07 in 10.0 mi NW 5.8 mph 16.1 mph N/A   Clear
5:35 PM 74.7 °F 43.5 °F 33% 30.07 in 10.0 mi North 11.5 mph 16.1 mph N/A   Clear
5:55 PM 74.7 °F 41.9 °F 31% 30.06 in 10.0 mi NNW 9.2 mph - N/A   Clear
6:15 PM 74.1 °F 43.7 °F 34% 30.06 in 10.0 mi North 10.4 mph 18.4 mph N/A   Clear
6:35 PM 73.6 °F 44.2 °F 35% 30.05 in 10.0 mi NNW 8.1 mph - N/A   Clear
6:55 PM 72.9 °F 46.2 °F 39% 30.05 in 10.0 mi NNW 3.5 mph - N/A   Clear
7:15 PM 71.8 °F 46.8 °F 41% 30.05 in 10.0 mi NNW 5.8 mph - N/A   Clear
7:35 PM 69.1 °F 47.8 °F 47% 30.05 in 10.0 mi NNW 4.6 mph - N/A   Clear
7:55 PM 68.2 °F 46.9 °F 47% 30.05 in 10.0 mi NW 4.6 mph - N/A   Clear
8:15 PM 65.3 °F 48.4 °F 54% 30.06 in 10.0 mi NW 5.8 mph - N/A   Clear
8:35 PM 63.5 °F 49.1 °F 59% 30.06 in 10.0 mi NW 4.6 mph - N/A   Clear
8:55 PM 59.7 °F 50.9 °F 73% 30.07 in 10.0 mi NNW 4.6 mph - N/A   Clear
9:15 PM 59.2 °F 49.1 °F 69% 30.07 in 10.0 mi NW 6.9 mph - N/A   Clear
9:35 PM 60.8 °F 47.8 °F 62% 30.08 in 10.0 mi NW 6.9 mph - N/A   Clear
9:55 PM 58.8 °F 47.8 °F 67% 30.09 in 10.0 mi NW 5.8 mph - N/A   Clear
10:15 PM 57.7 °F 47.5 °F 69% 30.09 in 10.0 mi NW 5.8 mph - N/A   Clear
10:35 PM 57.0 °F 47.5 °F 70% 30.10 in 10.0 mi NW 5.8 mph - N/A   Clear
10:55 PM 56.8 °F 46.6 °F 69% 30.11 in 10.0 mi WNW 3.5 mph - N/A   Clear
11:15 PM 55.8 °F 46.6 °F 71% 30.11 in 10.0 mi Calm Calm - N/A   Clear
11:55 PM 52.7 °F 45.9 °F 78% 30.13 in 10.0 mi NW 4.6 mph - N/A   Clear